Location: Unspecified
(0.0000°N, 0.0000°E)
Time: 07:23:15
(UTC+00:00)

Vanguard 2 Rocket - Pass Details

Date: 12 December 2017
Orbit: 553 x 3328 km, 32.9° (Epoch: 23 June)

Event Time Altitude Azimuth Distance (km) Brightness Sun altitude
Rises 19:20:23 0° 286° (WNW) 4,797 11.4 -19.8°
Reaches altitude 10° 19:24:19 10° 301° (WNW) 4,246 10.7 -20.7°
Maximum altitude 19:33:01 22° 347° (NNW) 4,191 10.1 -22.7°
Enters shadow 19:42:04 14° 23° (NNE) 5,414 10.4 -24.7°
Drops below altitude 10° 19:44:53 10° 30° (NNE) 5,902 - -25.3°
Sets 19:52:07 0° 44° (NE) 7,205 - -27.0°
